Date String (YYYY-MM-DD hh:mm:ss) UTC,Instrument flags,absolute air pressure of the measurement (hPa),sample flow rate (lpm),inlet stack bypass flow (lpm),air temperature of the measurement (°C),ambient temperature measured by the external sensor (°C),aerosol sample conditioner tube jacket temperature (°C),OPC LED temperature (°C),internal box temperature (°C),relative humidity of the measurement (%),span deviation,mass concentration of particles derived from Lorenz-Mie calculation of OPC scattering (μg/m³),mass concentration of particles derived from Lorenz-Mie calculation of OPC scattering (μg/m³),mass concentration of particles derived from Lorenz-Mie calculation of OPC scattering (μg/m³)
DateTimeUTC,F1_M11,P_M11,Q1_M11,Q2_M11,T1_M11,T2_M11,T3_M11,T4_M11,T5_M11,U1_M11,ZSPAN_M11,X0_M11,X2_M11,X1_M11
2023-10-27 04:00:00,SystemResetWarning,0830.4,5.00,000.00,025.9,024.5,000.0,034.4,027.6,19.1,0000.0,0006.69,0003.32,0002.65
2023-10-27 04:01:00,SystemResetWarning,0830.5,5.00,000.00,025.9,024.5,000.0,034.4,027.6,19.1,0000.0,0006.60,0003.32,0002.64
2023-10-27 04:02:00,SystemResetWarning,0830.4,5.00,000.00,025.9,024.5,000.0,034.4,027.6,19.2,0000.0,0006.64,0003.33,0002.66
2023-10-27 04:03:00,SystemResetWarning,0830.6,5.00,000.00,025.9,024.5,000.0,034.4,027.6,19.2,0000.0,0006.68,0003.33,0002.66
2023-10-27 04:04:00,SystemResetWarning,0830.4,5.00,000.00,025.9,024.5,000.0,034.4,027.6,19.2,0000.0,0006.31,0003.30,0002.66
2023-10-27 04:05:00,SystemResetWarning,0830.4,5.00,000.00,025.9,024.5,000.0,034.4,027.6,19.1,0000.0,0005.54,0003.31,0002.68
2023-10-27 04:06:00,SystemResetWarning,0830.5,5.00,000.00,026.0,024.5,000.0,034.4,027.6,19.1,0000.0,0005.51,0003.30,0002.70
2023-10-27 04:07:00,SystemResetWarning,0830.5,5.00,000.00,026.0,024.5,000.0,034.4,027.6,19.1,0000.0,0005.67,0003.32,0002.72
2023-10-27 04:08:00,SystemResetWarning,0830.5,5.00,000.00,026.0,024.5,000.0,034.4,027.6,19.0,0000.0,0005.76,0003.35,0002.75
2023-10-27 04:09:00,SystemResetWarning,0830.4,5.00,000.00,026.0,024.5,000.0,034.4,027.6,19.0,0000.0,0005.89,0003.36,0002.79
2023-10-27 04:10:00,SystemResetWarning,0830.4,5.00,000.00,026.0,024.5,000.0,034.4,027.6,19.0,0000.0,0005.60,0003.34,0002.81
2023-10-27 04:11:00,SystemResetWarning,0830.5,5.00,000.00,026.0,024.5,000.0,034.4,027.6,18.9,0000.0,0005.67,0003.35,0002.84
2023-10-27 04:12:00,SystemResetWarning,0830.5,5.00,000.00,026.0,024.5,000.0,034.4,027.6,18.9,0000.0,0005.90,0003.39,0002.88
2023-10-27 04:13:00,SystemResetWarning,0830.5,5.00,000.00,026.0,024.5,000.0,034.4,027.6,18.9,0000.0,0006.41,0003.38,0002.87
2023-10-27 04:14:00,SystemResetWarning,0830.6,5.00,000.00,025.9,024.5,000.0,034.4,027.6,18.9,0000.0,0006.50,0003.37,0002.88
2023-10-27 04:15:00,SystemResetWarning,0830.5,5.00,000.00,025.9,024.5,000.0,034.4,027.6,18.9,0000.0,0006.44,0003.37,0002.88
2023-10-27 04:16:00,SystemResetWarning,0830.3,5.00,000.00,025.9,024.5,000.0,034.4,027.6,18.9,0000.0,0006.28,0003.35,0002.89
2023-10-27 04:17:00,SystemResetWarning,0830.3,5.00,000.00,025.9,024.5,000.0,034.4,027.6,18.8,0000.0,0006.10,0003.32,0002.88
2023-10-27 04:18:00,SystemResetWarning,0830.4,5.00,000.00,025.9,024.5,000.0,034.4,027.6,18.7,0000.0,0005.83,0003.29,0002.84
2023-10-27 04:19:00,SystemResetWarning,0830.3,5.00,000.00,025.9,024.5,000.0,034.4,027.6,18.6,0000.3,0005.82,0003.28,0002.82
2023-10-27 04:20:00,SystemResetWarning,0830.3,5.00,000.00,025.9,024.5,000.0,034.4,027.6,18.6,0000.7,0005.77,0003.27,0002.79
2023-10-27 04:21:00,SystemResetWarning,0830.3,5.00,000.00,025.9,024.5,000.0,034.4,027.6,18.5,0000.1,0005.71,0003.26,0002.77
2023-10-27 04:22:00,SystemResetWarning,0830.4,5.00,000.00,025.9,024.5,000.0,034.4,027.6,18.4,0000.0,0005.70,0003.24,0002.76
2023-10-27 04:23:00,SystemResetWarning,0830.4,5.00,000.00,025.9,024.5,000.0,034.4,027.5,18.4,0000.0,0006.00,0003.22,0002.75
2023-10-27 04:24:00,SystemResetWarning,0830.4,5.00,000.00,025.9,024.5,000.0,034.4,027.5,18.3,0000.0,0005.38,0003.21,0002.74
2023-10-27 04:25:00,SystemResetWarning,0830.3,5.00,000.00,025.9,024.5,000.0,034.4,027.5,18.3,0000.0,0005.39,0003.25,0002.73
2023-10-27 04:26:00,SystemResetWarning,0830.4,5.00,000.00,025.9,024.5,000.0,034.4,027.6,18.3,0000.0,0005.47,0003.26,0002.75
2023-10-27 04:27:00,SystemResetWarning,0830.4,5.00,000.00,025.9,024.5,000.0,034.4,027.6,18.3,0000.0,0005.69,0003.28,0002.78
2023-10-27 04:28:00,SystemResetWarning,0830.5,5.00,000.00,025.9,024.5,000.0,034.4,027.6,18.3,0000.0,0005.98,0003.31,0002.79
2023-10-27 04:29:00,SystemResetWarning,0830.6,5.00,000.00,025.9,024.5,000.0,034.4,027.6,18.3,0000.0,0006.17,0003.34,0002.85
2023-10-27 04:30:00,SystemResetWarning,0830.5,5.00,000.00,025.9,024.5,000.0,034.4,027.6,18.3,0000.0,0006.41,0003.41,0002.94
2023-10-27 04:31:00,SystemResetWarning,0830.5,5.00,000.00,025.9,024.4,000.0,034.4,027.6,18.3,0000.0,0006.42,0003.48,0003.09
2023-10-27 04:32:00,SystemResetWarning,0830.7,5.01,000.00,025.9,024.4,000.0,034.4,027.6,18.2,0000.0,0006.67,0003.55,0003.14
2023-10-27 04:33:00,SystemResetWarning,0830.4,5.00,000.00,025.9,024.4,000.0,034.4,027.6,18.2,0000.6,0006.79,0003.58,0003.17
2023-10-27 04:34:00,SystemResetWarning,0830.5,5.00,000.00,025.9,024.4,000.0,034.4,027.6,18.2,0000.8,0006.26,0003.58,0003.18
2023-10-27 04:35:00,SystemResetWarning,0830.6,5.00,000.00,025.9,024.4,000.0,034.4,027.5,18.1,0000.3,0006.37,0003.61,0003.19
2023-10-27 04:36:00,SystemResetWarning,0830.5,5.00,000.00,025.9,024.4,000.0,034.4,027.5,18.1,0000.0,0006.23,0003.60,0003.20
2023-10-27 04:37:00,SystemResetWarning,0830.4,5.00,000.00,025.9,024.4,000.0,034.4,027.5,18.0,0000.0,0006.72,0003.58,0003.19
2023-10-27 04:38:00,SystemResetWarning,0830.5,5.00,000.00,025.9,024.4,000.0,034.4,027.5,18.0,0000.0,0006.69,0003.58,0003.17
2023-10-27 04:39:00,SystemResetWarning,0830.6,4.99,000.00,025.9,024.4,000.0,034.4,027.5,17.9,0000.0,0006.50,0003.58,0003.17
2023-10-27 04:40:00,SystemResetWarning,0830.6,5.00,000.00,025.9,024.4,000.0,034.4,027.5,17.9,0000.0,0007.33,0003.56,0003.16
2023-10-27 04:41:00,SystemResetWarning,0830.6,5.00,000.00,025.8,024.4,000.0,034.4,027.5,17.8,0000.0,0007.32,0003.49,0003.12
2023-10-27 04:42:00,SystemResetWarning,0830.5,5.00,000.00,025.8,024.4,000.0,034.4,027.5,17.8,0000.0,0007.22,0003.43,0003.01
2023-10-27 04:43:00,SystemResetWarning,0830.6,5.01,000.00,025.8,024.4,000.0,034.4,027.5,17.7,0000.0,0007.41,0003.37,0002.91
2023-10-27 04:44:00,SystemResetWarning,0830.6,5.01,000.00,025.8,024.4,000.0,034.4,027.5,17.6,0000.0,0007.68,0003.36,0002.89
2023-10-27 04:45:00,SystemResetWarning,0830.6,5.00,000.00,025.8,024.4,000.0,034.4,027.5,17.5,0000.0,0007.67,0003.35,0002.87
2023-10-27 04:46:00,SystemResetWarning,0830.6,4.99,000.00,025.8,024.4,000.0,034.4,027.5,17.3,0000.0,0007.56,0003.33,0002.87
2023-10-27 04:47:00,SystemResetWarning,0830.5,5.00,000.00,025.8,024.4,000.0,034.3,027.5,17.1,0000.0,0007.49,0003.31,0002.88
2023-10-27 04:48:00,SystemResetWarning,0830.6,5.00,000.00,025.8,024.3,000.0,034.3,027.5,16.9,0000.0,0007.20,0003.33,0002.91
2023-10-27 04:49:00,SystemResetWarning,0830.7,5.00,000.00,025.8,024.3,000.0,034.3,027.4,16.8,0000.0,0006.95,0003.30,0002.93
2023-10-27 04:50:00,SystemResetWarning,0830.8,5.00,000.00,025.8,024.3,000.0,034.3,027.4,16.7,0000.2,0007.03,0003.29,0002.95
2023-10-27 04:51:00,SystemResetWarning,0830.8,5.00,000.00,025.8,024.3,000.0,034.3,027.4,16.6,0000.9,0006.33,0003.33,0002.97
2023-10-27 04:52:00,SystemResetWarning,0830.8,5.00,000.00,025.8,024.3,000.0,034.3,027.4,16.6,0001.2,0005.94,0003.36,0003.00
2023-10-27 04:53:00,SystemResetWarning,0830.9,4.99,000.00,025.8,024.3,000.0,034.3,027.4,16.6,0000.8,0005.96,0003.38,0003.03
2023-10-27 04:54:00,SystemResetWarning,0830.9,5.00,000.00,025.8,024.3,000.0,034.3,027.4,16.5,0000.4,0005.63,0003.39,0003.07
2023-10-27 04:55:00,SystemResetWarning,0830.9,5.00,000.00,025.8,024.3,000.0,034.3,027.4,16.5,0000.2,0006.68,0003.42,0003.11
2023-10-27 04:56:00,SystemResetWarning,0830.9,5.00,000.00,025.8,024.3,000.0,034.3,027.5,16.6,0000.8,0006.93,0003.46,0003.14
2023-10-27 04:57:00,SystemResetWarning,0831.0,5.00,000.00,025.8,024.3,000.0,034.3,027.4,16.5,0000.8,0007.01,0003.49,0003.18
2023-10-27 04:58:00,SystemResetWarning,0831.2,5.00,000.00,025.8,024.3,000.0,034.3,027.4,16.4,0000.3,0007.07,0003.53,0003.21
2023-10-27 04:59:00,SystemResetWarning,0831.1,5.01,000.00,025.8,024.3,000.0,034.3,027.4,16.3,-000.3,0006.96,0003.53,0003.23
